This is the latest recevied weather packets stored in our database for station/object N9CQL. If no packets are shown the sender has not sent any weather packets the latest 10 day(s).
| Time | Temp. | Humidity | Pressure | Rain* | Wind** | Luminosity | Snow |
|---|---|---|---|---|---|---|---|
| 1778099494 | 16.67° C | 33% | 1011.9 hPa | 0 mm | - | 580 W/m² | - |
| 1778099192 | 15.56° C | 34% | 1011.9 hPa | 0 mm | - | 658 W/m² | - |
| 1778098888 | 15.56° C | 36% | 1012 hPa | 0 mm | - | 555 W/m² | - |
| 1778098585 | 15° C | 36% | 1012.1 hPa | 0 mm | - | 706 W/m² | - |
| 1778098282 | 15° C | 36% | 1012 hPa | 0 mm | - | 301 W/m² | - |
| 1778097978 | 14.44° C | 36% | 1012 hPa | 0 mm | - | 308 W/m² | - |
| 1778097675 | 15.56° C | 37% | 1012.2 hPa | 0 mm | - | 191 W/m² | - |
| 1778097372 | 16.11° C | 37% | 1012.2 hPa | 0 mm | - | 233 W/m² | - |
| 1778097068 | 15° C | 38% | 1012.2 hPa | 0 mm | - | 741 W/m² | - |
| 1778096765 | 15° C | 40% | 1012.7 hPa | 0 mm | - | 605 W/m² | - |
| 1778096462 | 15° C | 40% | 1012.5 hPa | 0 mm | - | 540 W/m² | - |
| 1778096160 | 15° C | 38% | 1012.4 hPa | 0 mm | - | 346 W/m² | - |
| 1778095857 | 15° C | 40% | 1012.7 hPa | 0 mm | - | 542 W/m² | - |
| 1778095553 | 14.44° C | 41% | 1012.5 hPa | 0 mm | - | 326 W/m² | - |
| 1778095249 | 15° C | 38% | 1012.5 hPa | 0 mm | - | 476 W/m² | - |
| 1778094946 | 13.89° C | 41% | 1012.4 hPa | 0 mm | - | 236 W/m² | - |
| 1778094642 | 14.44° C | 38% | 1012.5 hPa | 0 mm | - | 201 W/m² | - |
| 1778094339 | 15° C | 41% | 1012.5 hPa | 0 mm | - | 223 W/m² | - |
| 1778094036 | 13.89° C | 42% | 1012.6 hPa | 0 mm | - | 329 W/m² | - |
| 1778093734 | 13.33° C | 40% | 1012.5 hPa | 0 mm | - | 249 W/m² | - |
| 1778093430 | 13.33° C | 39% | 1012.6 hPa | 0 mm | - | 189 W/m² | - |
| 1778093128 | 13.89° C | 41% | 1012.8 hPa | 0 mm | - | 224 W/m² | - |
| 1778092825 | 13.89° C | 41% | 1012.5 hPa | 0 mm | - | 265 W/m² | - |
| 1778092520 | 13.89° C | 40% | 1012.5 hPa | 0 mm | - | 258 W/m² | - |
| 1778092217 | 13.89° C | 40% | 1012.5 hPa | 0 mm | - | 335 W/m² | - |
* Rain latest hour (hover to see other rain measurements)
** Current wind speed in m/s (hover to see current wind gust speed)